Powrót do katalogu

COSMOS 1408 DEB

AktywnyPO
NORAD 50032·DEBRIS·🇷🇺 Russia

Wystrzelony Sep 16, 1982 z Plesetsk Cosmodrome

Loading…

Następne Przeloty (najbliższe 24 godziny)

TLE

ŚwieżeSource: Space-Track

Epoka: Sep 14, 2026, 02:35 UTC

1 50032U 82092RU  26257.10778682  .00003694  00000-0  68792-4 0  9990
2 50032  82.5626 135.6378 0013291 294.6589  65.3277 15.48362470268616

Śledź COSMOS 1408 DEB w czasie rzeczywistym z AllMySat

Download on the App Store